Fergus Falls, MN

4:33 AM CST on December 09, 2019 (GMT -0600)
Fergus Falls Municipal-Mickelson

Weather History for KFFM - October, 2019

Change the Weather History Date:

Monday, October 28, 2019

  Actual Average Record
Temperature  
Mean Temperature 30 °F -  
Max Temperature 35 °F 51 °F 74 °F (1983)
Min Temperature 24 °F 29 °F 12 °F (1967)
Degree Days  
Heating Degree Days 36    
Moisture  
Dew Point 18 °F    
Average Humidity 63    
Maximum Humidity 75    
Minimum Humidity 44    
Precipitation  
Precipitation 0.00 in - - ()
Sea Level Pressure  
Sea Level Pressure 30.05 in    
Wind  
Wind Speed 8 mph ()    
Max Wind Speed 17 mph    
Max Gust Speed 21 mph    
Visibility 10.0 miles    
Events      
Averages and records for this station are not official NWS values.
T = Trace of Precipitation, MM = Missing Value Source: Averaged Metar Reports

Daily Weather History Graph

Daily Weather History Graph

Search for Another Location

Airport or City:

Astronomy

Oct. 28, 2019 Rise Set
Actual Time 7:59 AM CDT 6:16 PM CDT
Civil Twilight 7:28 AM CDT 6:47 PM CDT
Nautical Twilight 6:53 AM CDT 7:22 PM CDT
Astronomical Twilight 6:18 AM CDT 7:57 PM CDT
Moon 8:21 AM CDT (10/28) 7:01 PM CDT (10/28)
Length of Visible Light 11h 18m
Length of Day
10h 16m
New Moon, 0% of the Moon is Illuminated
Oct 28
New Moon
Nov 4
First Quarter
Nov 12
Full
Nov 19
Last Quarter
Nov 26
New

Hourly Weather History & Observations

Time (CDT) Temp. Windchill Dew Point Humidity Pressure Visibility Wind Dir Wind Speed Gust Speed Precip Events Conditions
12:18 AM 28.4 °F 19.7 °F 17.6 °F 64% 30.10 in 10.0 mi WNW 9.2 mph - N/A   Overcast
12:37 AM 28.4 °F 21.2 °F 17.6 °F 64% 30.09 in 10.0 mi West 6.9 mph - N/A   Overcast
12:56 AM 28.4 °F 20.4 °F 17.6 °F 64% 30.09 in 10.0 mi West 8.1 mph - N/A   Overcast
1:15 AM 28.4 °F 20.4 °F 17.6 °F 64% 30.09 in 10.0 mi West 8.1 mph - N/A   Overcast
1:16 AM 28.4 °F 21.2 °F 17.6 °F 64% 30.09 in 10.0 mi West 6.9 mph - N/A   Overcast
1:35 AM 28.4 °F 19.7 °F 17.6 °F 64% 30.09 in 10.0 mi West 9.2 mph - N/A   Overcast
1:57 AM 28.4 °F 18.0 °F 17.6 °F 64% 30.09 in 10.0 mi WNW 12.7 mph 16.1 mph N/A   Overcast
2:15 AM 28.4 °F 20.4 °F 19.4 °F 69% 30.09 in 10.0 mi West 8.1 mph - N/A   Overcast
2:35 AM 28.4 °F 16.6 °F 15.8 °F 59% 30.09 in 10.0 mi WNW 16.1 mph - N/A   Overcast
2:36 AM 28.4 °F 16.2 °F 15.8 °F 59% 30.09 in 10.0 mi WNW 17.3 mph - N/A   Overcast
2:55 AM 26.6 °F 15.2 °F 15.8 °F 64% 30.09 in 10.0 mi WNW 13.8 mph 20.7 mph N/A   Overcast
3:18 AM 26.6 °F 14.3 °F 15.8 °F 64% 30.08 in 10.0 mi West 16.1 mph - N/A   Overcast
3:36 AM 26.6 °F 16.2 °F 15.8 °F 64% 30.09 in 10.0 mi WNW 11.5 mph - N/A   Overcast
3:55 AM 26.6 °F 16.8 °F 15.8 °F 64% 30.08 in 10.0 mi West 10.4 mph - N/A   Overcast
4:15 AM 26.6 °F 20.0 °F 17.6 °F 69% 30.08 in 10.0 mi WNW 5.8 mph - N/A   Overcast
4:16 AM 26.6 °F 20.0 °F 17.6 °F 69% 30.08 in 10.0 mi WNW 5.8 mph - N/A   Overcast
4:35 AM 26.6 °F 19.1 °F 17.6 °F 69% 30.07 in 10.0 mi West 6.9 mph - N/A   Overcast
4:39 AM 26.6 °F 18.2 °F 17.6 °F 69% 30.07 in 10.0 mi WNW 8.1 mph - N/A   Overcast
4:58 AM 26.6 °F 18.2 °F 17.6 °F 69% 30.06 in 10.0 mi West 8.1 mph - N/A   Overcast
5:15 AM 26.6 °F 18.2 °F 19.4 °F 74% 30.06 in 10.0 mi WNW 8.1 mph - N/A   Overcast
5:35 AM 26.6 °F 17.5 °F 17.6 °F 69% 30.06 in 10.0 mi WNW 9.2 mph - N/A   Overcast
5:36 AM 26.6 °F 18.2 °F 17.6 °F 69% 30.06 in 10.0 mi West 8.1 mph - N/A   Overcast
5:55 AM 26.6 °F 15.7 °F 17.6 °F 69% 30.06 in 10.0 mi West 12.7 mph - N/A   Overcast
5:56 AM 26.6 °F 15.7 °F 17.6 °F 69% 30.06 in 10.0 mi West 12.7 mph - N/A   Overcast
6:18 AM 26.6 °F 16.8 °F 19.4 °F 74% 30.05 in 10.0 mi WNW 10.4 mph - N/A   Overcast
6:36 AM 26.6 °F 18.2 °F 17.6 °F 69% 30.05 in 10.0 mi WNW 8.1 mph - N/A   Overcast
6:55 AM 26.6 °F 18.2 °F 17.6 °F 69% 30.05 in 10.0 mi WNW 8.1 mph - N/A   Overcast
7:15 AM 26.6 °F 19.1 °F 19.4 °F 74% 30.05 in 10.0 mi West 6.9 mph - N/A   Overcast
7:16 AM 26.6 °F 19.1 °F 19.4 °F 74% 30.05 in 10.0 mi West 6.9 mph - N/A   Overcast
7:35 AM 26.6 °F 20.0 °F 19.4 °F 74% 30.05 in 10.0 mi West 5.8 mph - N/A   Overcast
7:58 AM 26.6 °F 21.2 °F 19.4 °F 74% 30.04 in 10.0 mi West 4.6 mph - N/A   Overcast
8:15 AM 26.6 °F 19.1 °F 19.4 °F 74% 30.05 in 10.0 mi West 6.9 mph - N/A   Overcast
8:35 AM 24.8 °F 16.1 °F 17.6 °F 74% 30.05 in 10.0 mi WSW 8.1 mph - N/A   Mostly Cloudy
8:36 AM 24.8 °F 15.3 °F 17.6 °F 74% 30.05 in 10.0 mi WSW 9.2 mph - N/A   Mostly Cloudy
8:55 AM 24.8 °F 16.9 °F 17.6 °F 74% 30.05 in 10.0 mi WSW 6.9 mph - N/A   Scattered Clouds
9:18 AM 24.8 °F 14.6 °F 17.6 °F 74% 30.07 in 10.0 mi SW 10.4 mph - N/A   Clear
9:37 AM 24.8 °F 15.3 °F 17.6 °F 74% 30.07 in 10.0 mi SW 9.2 mph - N/A   Clear
9:56 AM 24.8 °F 15.3 °F 17.6 °F 74% 30.07 in 10.0 mi WSW 9.2 mph - N/A   Clear
10:15 AM 26.6 °F 17.5 °F 17.6 °F 69% 30.07 in 10.0 mi WSW 9.2 mph - N/A   Clear
10:16 AM 26.6 °F 18.2 °F 17.6 °F 69% 30.07 in 10.0 mi WSW 8.1 mph - N/A   Clear
10:35 AM 26.6 °F 17.5 °F 17.6 °F 69% 30.07 in 10.0 mi WSW 9.2 mph - N/A   Clear
10:40 AM 26.6 °F 16.2 °F 17.6 °F 69% 30.06 in 10.0 mi SW 11.5 mph - N/A   Clear
10:57 AM 26.6 °F 16.8 °F 17.6 °F 69% 30.07 in 10.0 mi SW 10.4 mph - N/A   Clear
11:15 AM 28.4 °F 18.5 °F 17.6 °F 64% 30.06 in 10.0 mi WSW 11.5 mph - N/A   Clear
11:35 AM 28.4 °F 20.4 °F 17.6 °F 64% 30.05 in 10.0 mi WSW 8.1 mph - N/A   Clear
11:55 AM 28.4 °F 19.1 °F 15.8 °F 59% 30.05 in 10.0 mi SW 10.4 mph - N/A   Clear
12:19 PM 30.2 °F 20.8 °F 15.8 °F 55% 30.06 in 10.0 mi SW 11.5 mph - N/A   Scattered Clouds
12:37 PM 30.2 °F 21.9 °F 15.8 °F 55% 30.06 in 10.0 mi SW 9.2 mph - N/A   Scattered Clouds
12:56 PM 30.2 °F 21.3 °F 15.8 °F 55% 30.05 in 10.0 mi WSW 10.4 mph 18.4 mph N/A   Clear
1:15 PM 30.2 °F 21.3 °F 15.8 °F 55% 30.05 in 10.0 mi WSW 10.4 mph 17.3 mph N/A   Clear
1:16 PM 30.2 °F 21.3 °F 15.8 °F 55% 30.05 in 10.0 mi WSW 10.4 mph 17.3 mph N/A   Clear
1:35 PM 30.2 °F 23.4 °F 15.8 °F 55% 30.04 in 10.0 mi WSW 6.9 mph - N/A   Clear
1:40 PM 30.2 °F 20.8 °F 15.8 °F 55% 30.04 in 10.0 mi WSW 11.5 mph - N/A   Clear
1:57 PM 32.0 °F 21.6 °F 15.8 °F 51% 30.04 in 10.0 mi WSW 15.0 mph - N/A   Clear
2:15 PM 32.0 °F 24.2 °F 15.8 °F 51% 30.03 in 10.0 mi SW 9.2 mph 17.3 mph N/A   Clear
2:35 PM 32.0 °F 24.2 °F 15.8 °F 51% 30.03 in 10.0 mi WSW 9.2 mph - N/A   Clear
2:36 PM 32.0 °F 23.0 °F 15.8 °F 51% 30.03 in 10.0 mi WSW 11.5 mph - N/A   Clear
2:55 PM 33.8 °F 24.8 °F 15.8 °F 48% 30.02 in 10.0 mi WSW 12.7 mph - N/A   Clear
2:56 PM 33.8 °F 25.3 °F 15.8 °F 48% 30.02 in 10.0 mi WSW 11.5 mph - N/A   Clear
3:18 PM 33.8 °F 25.3 °F 15.8 °F 48% 30.01 in 10.0 mi West 11.5 mph 17.3 mph N/A   Clear
3:37 PM 33.8 °F 27.0 °F 15.8 °F 48% 30.01 in 10.0 mi West 8.1 mph - N/A   Clear
3:56 PM 35.6 °F 27.5 °F 15.8 °F 44% 30.01 in 10.0 mi West 11.5 mph 16.1 mph N/A   Clear
4:15 PM 35.6 °F 28.0 °F 15.8 °F 44% 30.00 in 10.0 mi West 10.4 mph - N/A   Clear
4:16 PM 35.6 °F 28.0 °F 15.8 °F 44% 30.00 in 10.0 mi West 10.4 mph - N/A   Clear
4:35 PM 35.6 °F 28.6 °F 15.8 °F 44% 30.01 in 10.0 mi WSW 9.2 mph - N/A   Clear
4:58 PM 35.6 °F 29.2 °F 15.8 °F 44% 30.01 in 10.0 mi WSW 8.1 mph - N/A   Clear
5:16 PM 33.8 °F 27.7 °F 15.8 °F 48% 30.01 in 10.0 mi WSW 6.9 mph - N/A   Clear
5:35 PM 33.8 °F 29.6 °F 15.8 °F 48% 30.01 in 10.0 mi WSW 4.6 mph - N/A   Clear
5:36 PM 33.8 °F 29.6 °F 15.8 °F 48% 30.01 in 10.0 mi West 4.6 mph - N/A   Clear
5:55 PM 33.8 °F 30.8 °F 17.6 °F 52% 30.01 in 10.0 mi West 3.5 mph - N/A   Clear
5:56 PM 33.8 °F 30.8 °F 17.6 °F 52% 30.01 in 10.0 mi West 3.5 mph - N/A   Clear
6:19 PM 30.2 °F 26.7 °F 17.6 °F 60% 30.02 in 10.0 mi WSW 3.5 mph - N/A   Clear
6:36 PM 30.2 °F - 17.6 °F 60% 30.02 in 10.0 mi Calm Calm - N/A   Clear
6:56 PM 30.2 °F - 17.6 °F 60% 30.03 in 10.0 mi Calm Calm - N/A   Clear
7:15 PM 30.2 °F 26.7 °F 17.6 °F 60% 30.03 in 10.0 mi SSW 3.5 mph - N/A   Clear
7:35 PM 30.2 °F - 17.6 °F 60% 30.04 in 10.0 mi Calm Calm - N/A   Scattered Clouds
7:39 PM 30.2 °F - 17.6 °F 60% 30.04 in 10.0 mi Calm Calm - N/A   Scattered Clouds
7:57 PM 30.2 °F - 19.4 °F 64% 30.04 in 10.0 mi Calm Calm - N/A   Mostly Cloudy
8:16 PM 30.2 °F 26.7 °F 19.4 °F 64% 30.04 in 10.0 mi SE 3.5 mph - N/A   Overcast
8:35 PM 30.2 °F 26.7 °F 19.4 °F 64% 30.04 in 10.0 mi SSE 3.5 mph - N/A   Overcast
8:36 PM 30.2 °F 26.7 °F 19.4 °F 64% 30.04 in 10.0 mi SSE 3.5 mph - N/A   Overcast
8:55 PM 30.2 °F 25.4 °F 21.2 °F 69% 30.04 in 10.0 mi SSE 4.6 mph - N/A   Overcast
8:59 PM 30.2 °F 25.4 °F 21.2 °F 69% 30.04 in 10.0 mi SSE 4.6 mph - N/A   Overcast
9:16 PM 30.2 °F 24.3 °F 21.2 °F 69% 30.05 in 10.0 mi South 5.8 mph - N/A   Overcast
9:36 PM 30.2 °F 25.4 °F 21.2 °F 69% 30.05 in 10.0 mi South 4.6 mph - N/A   Overcast
9:55 PM 30.2 °F 26.7 °F 21.2 °F 69% 30.06 in 10.0 mi South 3.5 mph - N/A   Overcast
9:56 PM 30.2 °F 25.4 °F 21.2 °F 69% 30.06 in 10.0 mi South 4.6 mph - N/A   Overcast
10:15 PM 30.2 °F 25.4 °F 21.2 °F 69% 30.06 in 10.0 mi South 4.6 mph - N/A   Overcast
10:19 PM 30.2 °F 25.4 °F 21.2 °F 69% 30.06 in 10.0 mi South 4.6 mph - N/A   Overcast
10:37 PM 30.2 °F 25.4 °F 23.0 °F 75% 30.07 in 10.0 mi South 4.6 mph - N/A   Overcast
10:56 PM 30.2 °F 26.7 °F 23.0 °F 75% 30.07 in 10.0 mi SSW 3.5 mph - N/A   Overcast
11:15 PM 30.2 °F 26.7 °F 21.2 °F 69% 30.07 in 10.0 mi SSW 3.5 mph - N/A   Overcast
11:16 PM 30.2 °F 26.7 °F 21.2 °F 69% 30.07 in 10.0 mi SSW 3.5 mph - N/A   Overcast
11:35 PM 30.2 °F 26.7 °F 21.2 °F 69% 30.07 in 10.0 mi SSW 3.5 mph - N/A   Scattered Clouds
11:36 PM 30.2 °F 26.7 °F 21.2 °F 69% 30.07 in 10.0 mi SW 3.5 mph - N/A   Scattered Clouds
11:59 PM 28.4 °F 20.4 °F 21.2 °F 74% 30.09 in 10.0 mi WNW 8.1 mph - N/A   Clear